Dublin, Ireland

1:32 PM GMT on January 17, 2018 (GMT +0000)
Dublin International

Weather History for EIDW - October, 2010

Change the Weather History Date:

Friday, October 22, 2010

  Actual Average Record
Temperature  
Mean Temperature 48 °F -  
Max Temperature 53 °F 52 °F 66 °F (1996)
Min Temperature 44 °F 42 °F 33 °F (2003)
Degree Days  
Heating Degree Days 16    
Moisture  
Dew Point 45 °F    
Average Humidity 86    
Maximum Humidity 94    
Minimum Humidity 71    
Precipitation  
Precipitation 0.12 in 0.09 in - ()
Sea Level Pressure  
Sea Level Pressure 29.87 in    
Wind  
Wind Speed 13 mph ()    
Max Wind Speed 21 mph    
Max Gust Speed 28 mph    
Visibility 6.9 miles    
Events Rain    
Averages and records for this station are not official NWS values.
T = Trace of Precipitation, MM = Missing Value Source: Averaged Metar Reports

Daily Weather History Graph

Daily Weather History Graph

Search for Another Location

Airport or City:

Trip Planner

Search our weather history database for the weather conditions in past years. The results will help you decide how hot, cold, wet, or windy it might be!

Date:

Astronomy

Oct. 22, 2010 Rise Set
Actual Time 8:04 AM IST 6:13 PM IST
Civil Twilight 7:28 AM IST 6:49 PM IST
Nautical Twilight 6:48 AM IST 7:29 PM IST
Astronomical Twilight 6:07 AM IST 8:10 PM IST
Moon 5:27 PM IST (10/22) 7:34 AM IST (10/22)
Length of Visible Light 11h 20m
Length of Day
10h 08m
Full, 100% of the Moon is Illuminated
Oct 22
Full
Oct 23
Full
Oct 30
Last Quarter
Nov 6
New
Nov 13
First Quarter

Hourly Weather History & Observations

Time (IST) Temp. Windchill Dew Point Humidity Pressure Visibility Wind Dir Wind Speed Gust Speed Precip Events Conditions
12:00 AM 48.2 °F - 42.8 °F 82% 30.09 in 6.2 mi WSW 15.0 mph - N/A   Mostly Cloudy
12:30 AM 46.4 °F 40.4 °F 42.8 °F 87% 30.09 in 6.2 mi WSW 13.8 mph - N/A   Mostly Cloudy
1:00 AM 46 °F - 43 °F 84% 30.10 in 19 mi WSW 13.4 mph - -   Scattered Clouds
1:00 AM 46.4 °F 40.4 °F 42.8 °F 87% 30.06 in 6.2 mi WSW 13.8 mph - N/A   Mostly Cloudy
1:30 AM 46.4 °F 40.4 °F 42.8 °F 87% 30.06 in 6.2 mi WSW 13.8 mph - N/A   Mostly Cloudy
2:00 AM 46.4 °F 40.7 °F 44.6 °F 93% 30.06 in 6.2 mi WSW 12.7 mph - N/A   Mostly Cloudy
2:30 AM 46.4 °F 40.4 °F 44.6 °F 93% 30.06 in 6.2 mi WSW 13.8 mph - N/A   Mostly Cloudy
3:00 AM 46.4 °F 40.1 °F 42.8 °F 87% 30.04 in 6.2 mi WSW 15.0 mph - N/A   Mostly Cloudy
3:30 AM 48.2 °F - 42.8 °F 82% 30.04 in 6.2 mi WSW 13.8 mph - N/A   Mostly Cloudy
4:00 AM 46.4 °F 41.1 °F 42.8 °F 87% 30.04 in 6.2 mi WSW 11.5 mph - N/A   Scattered Clouds
4:30 AM 44.6 °F 38.1 °F 42.8 °F 93% 30.01 in 6.2 mi WSW 13.8 mph - N/A   Partly Cloudy
5:00 AM 46.4 °F 41.1 °F 42.8 °F 87% 30.01 in 6.2 mi WSW 11.5 mph - N/A   Partly Cloudy
5:30 AM 44.6 °F 38.4 °F 41.0 °F 87% 30.01 in 6.2 mi SW 12.7 mph - N/A   Partly Cloudy
6:00 AM 44.6 °F 38.4 °F 41.0 °F 87% 30.01 in 6.2 mi WSW 12.7 mph - N/A   Partly Cloudy
6:30 AM 44.6 °F 38.8 °F 42.8 °F 93% 29.98 in 6.2 mi WSW 11.5 mph - N/A   Scattered Clouds
7:00 AM 46 °F - 42 °F 81% 30.00 in 19 mi SW 13.4 mph - -   Partly Cloudy
7:00 AM 46.4 °F 40.4 °F 42.8 °F 87% 29.98 in 6.2 mi SW 13.8 mph - N/A   Mostly Cloudy
7:30 AM 44.6 °F 39.2 °F 41.0 °F 87% 29.98 in 6.2 mi SW 10.4 mph - N/A   Scattered Clouds
8:00 AM 44.6 °F 39.7 °F 41.0 °F 87% 29.98 in 6.2 mi SW 9.2 mph - N/A   Scattered Clouds
8:30 AM 44.6 °F 38.4 °F 41.0 °F 87% 29.98 in 6.2 mi SW 12.7 mph - N/A   Scattered Clouds
9:00 AM 44.6 °F 38.4 °F 41.0 °F 87% 29.98 in 6.2 mi SW 12.7 mph - N/A   Scattered Clouds
9:30 AM 48.2 °F - 42.8 °F 82% 29.95 in 6.2 mi SW 15.0 mph - N/A   Mostly Cloudy
10:00 AM 48.2 °F - 41.0 °F 76% 29.95 in 6.2 mi SW 16.1 mph - N/A   Mostly Cloudy
10:30 AM 48.2 °F - 41.0 °F 76% 29.95 in 6.2 mi SW 13.8 mph - N/A   Mostly Cloudy
11:00 AM 50.0 °F - 41.0 °F 71% 29.92 in 6.2 mi SW 13.8 mph - N/A   Mostly Cloudy
11:30 AM 50.0 °F - 42.8 °F 76% 29.92 in 6.2 mi SW 11.5 mph - N/A   Mostly Cloudy
12:00 PM 51.8 °F - 42.8 °F 71% 29.92 in 6.2 mi SW 13.8 mph - N/A   Mostly Cloudy
12:30 PM 51.8 °F - 42.8 °F 71% 29.89 in 6.2 mi SW 16.1 mph - N/A   Mostly Cloudy
1:00 PM 51 °F - 44 °F 71% 29.89 in 19 mi SW 17.9 mph - - Rain Light Rain
1:00 PM 51.8 °F - 44.6 °F 76% 29.89 in 6.2 mi SW 19.6 mph - N/A Rain Light Rain
1:30 PM 50.0 °F - 44.6 °F 82% 29.86 in 6.2 mi SSW 16.1 mph 27.6 mph N/A Rain Light Rain
2:00 PM 51.8 °F - 46.4 °F 82% 29.83 in 6.2 mi SW 17.3 mph - N/A Rain Light Rain
2:30 PM 51.8 °F - 46.4 °F 82% 29.83 in 6.2 mi SW 18.4 mph - N/A Rain Light Rain
3:00 PM 51.8 °F - 48.2 °F 88% 29.80 in 6.2 mi SW 16.1 mph - N/A Rain Light Rain
3:30 PM 51.8 °F - 48.2 °F 88% 29.80 in 6.2 mi SW 16.1 mph - N/A   Mostly Cloudy
4:00 PM 53.6 °F - 48.2 °F 82% 29.77 in 6.2 mi SW 17.3 mph - N/A   Mostly Cloudy
4:30 PM 53.6 °F - 48.2 °F 82% 29.77 in 6.2 mi SW 15.0 mph - N/A   Mostly Cloudy
5:00 PM 51.8 °F - 48.2 °F 88% 29.74 in 6.2 mi SW 15.0 mph - N/A Rain Light Rain
5:30 PM 51.8 °F - 50.0 °F 94% 29.71 in 6.2 mi SSW 12.7 mph - N/A Rain Light Rain
6:00 PM 51.8 °F - 50.0 °F 94% 29.71 in 6.2 mi SSW 12.7 mph - N/A Rain Light Rain
6:30 PM 51.8 °F - 50.0 °F 94% 29.68 in 6.2 mi SSW 10.4 mph - N/A Rain Light Rain
7:00 PM 51 °F - 49 °F 92% 29.68 in 8 mi South 8.9 mph - - Rain Light Rain
7:00 PM 51.8 °F - 50.0 °F 94% 29.68 in 6.2 mi South 9.2 mph - N/A Rain Light Rain
7:30 PM 51.8 °F - 50.0 °F 94% 29.65 in 6.2 mi South 11.5 mph - N/A Rain Light Rain
8:00 PM 51.8 °F - 50.0 °F 94% 29.62 in 5.0 mi SW 20.7 mph - N/A Rain Light Rain
8:30 PM 51.8 °F - 50.0 °F 94% 29.62 in 6.2 mi WSW 19.6 mph - N/A   Mostly Cloudy
9:00 PM 51.8 °F - 48.2 °F 88% 29.62 in 6.2 mi WSW 20.7 mph - N/A   Mostly Cloudy
9:30 PM 48.2 °F - 46.4 °F 93% 29.62 in 6.2 mi West 20.7 mph - N/A   Scattered Clouds
10:00 PM 46.4 °F 39.5 °F 44.6 °F 93% 29.65 in 6.2 mi West 17.3 mph - N/A   Scattered Clouds
10:30 PM 46.4 °F 40.1 °F 44.6 °F 93% 29.65 in 6.2 mi West 15.0 mph - N/A   Scattered Clouds
11:00 PM 46.4 °F 40.4 °F 44.6 °F 93% 29.65 in 6.2 mi West 13.8 mph - N/A   Mostly Cloudy
11:30 PM 46.4 °F 40.7 °F 44.6 °F 93% 29.65 in 6.2 mi West 12.7 mph - N/A   Mostly Cloudy